Time,TemperatureF,DewpointF,PressureIn,WindDirection,WindDirectionDegrees,WindSpeedMPH,WindSpeedGustMPH,Humidity,HourlyPrecipIn,Conditions,Clouds,dailyrainin,SoftwareType,DateUTC
2014-04-19 00:07:00,57.2,53.7,30.02,NNE,22,2.2,-999.0,88,-99.99,,,0.00,Acu-Link.com,2014-04-19 05:07:00,
2014-04-19 00:22:00,57.2,53.7,30.03,NW,315,5.3,-999.0,88,-99.99,,,0.00,Acu-Link.com,2014-04-19 05:22:00,
2014-04-19 00:37:00,57.0,53.5,30.03,WNW,292,3.2,-999.0,88,-99.99,,,0.00,Acu-Link.com,2014-04-19 05:37:00,
2014-04-19 00:52:00,57.0,53.5,30.03,NW,315,2.7,-999.0,88,-99.99,,,0.00,Acu-Link.com,2014-04-19 05:52:00,
2014-04-19 01:07:00,56.8,53.3,30.02,West,270,3.7,-999.0,88,-99.99,,,0.00,Acu-Link.com,2014-04-19 06:07:00,
2014-04-19 01:22:00,56.8,53.3,30.01,WNW,292,2.7,-999.0,88,-99.99,,,0.00,Acu-Link.com,2014-04-19 06:22:00,
2014-04-19 01:37:00,56.8,53.3,30.02,NNE,22,8.3,-999.0,88,-99.99,,,0.00,Acu-Link.com,2014-04-19 06:37:00,
2014-04-19 01:52:00,56.7,53.2,30.01,NNW,337,2.2,-999.0,88,-99.99,,,0.00,Acu-Link.com,2014-04-19 06:52:00,
2014-04-19 02:08:00,56.5,53.0,30.01,WNW,292,1.1,-999.0,88,-99.99,,,0.00,Acu-Link.com,2014-04-19 07:08:00,
2014-04-19 02:23:00,56.5,53.0,30.01,WNW,292,1.7,-999.0,88,-99.99,,,0.00,Acu-Link.com,2014-04-19 07:23:00,
2014-04-19 02:38:00,56.5,53.0,30.02,West,270,1.7,-999.0,88,-99.99,,,0.00,Acu-Link.com,2014-04-19 07:38:00,
2014-04-19 02:53:00,56.5,53.0,30.02,NW,315,1.1,-999.0,88,-99.99,,,0.00,Acu-Link.com,2014-04-19 07:53:00,
2014-04-19 03:08:00,56.5,53.0,30.02,NW,315,4.2,-999.0,88,-99.99,,,0.00,Acu-Link.com,2014-04-19 08:08:00,
2014-04-19 03:23:00,56.5,53.0,30.02,NNE,22,5.8,-999.0,88,-99.99,,,0.00,Acu-Link.com,2014-04-19 08:23:00,
2014-04-19 03:38:00,56.5,53.0,30.01,NNW,337,5.3,-999.0,88,-99.99,,,0.00,Acu-Link.com,2014-04-19 08:38:00,
2014-04-19 03:53:00,56.3,52.8,30.01,WNW,292,2.2,-999.0,88,-99.99,,,0.00,Acu-Link.com,2014-04-19 08:53:00,
2014-04-19 04:08:00,56.3,52.8,30.02,WNW,292,5.3,-999.0,88,-99.99,,,0.00,Acu-Link.com,2014-04-19 09:08:00,
2014-04-19 04:24:00,56.3,52.8,30.02,NNW,337,2.2,-999.0,88,-99.99,,,0.00,Acu-Link.com,2014-04-19 09:24:00,
2014-04-19 04:39:00,56.3,52.8,30.02,WNW,292,4.2,-999.0,88,-99.99,,,0.00,Acu-Link.com,2014-04-19 09:39:00,
2014-04-19 04:54:00,56.1,52.6,30.01,ENE,67,7.8,-999.0,88,-99.99,,,0.00,Acu-Link.com,2014-04-19 09:54:00,
2014-04-19 05:09:00,55.9,52.4,30.01,WNW,292,3.7,-999.0,88,-99.99,,,0.00,Acu-Link.com,2014-04-19 10:09:00,
2014-04-19 05:24:00,55.9,52.4,30.02,West,270,0.0,-999.0,88,-99.99,,,0.00,Acu-Link.com,2014-04-19 10:24:00,
2014-04-19 05:39:00,55.8,52.3,30.01,NNW,337,4.2,-999.0,88,-99.99,,,0.00,Acu-Link.com,2014-04-19 10:39:00,
2014-04-19 05:54:00,55.4,51.9,30.02,NNW,337,5.8,-999.0,88,-99.99,,,0.00,Acu-Link.com,2014-04-19 10:54:00,
2014-04-19 06:09:00,55.4,51.9,30.02,NW,315,4.2,-999.0,88,-99.99,,,0.00,Acu-Link.com,2014-04-19 11:09:00,
2014-04-19 06:24:00,55.4,51.9,30.03,WNW,292,6.8,-999.0,88,-99.99,,,0.00,Acu-Link.com,2014-04-19 11:24:00,
2014-04-19 06:40:00,55.6,52.1,30.04,East,90,4.2,-999.0,88,-99.99,,,0.00,Acu-Link.com,2014-04-19 11:40:00,
2014-04-19 06:55:00,55.8,52.3,30.04,NNE,22,4.7,-999.0,88,-99.99,,,0.00,Acu-Link.com,2014-04-19 11:55:00,
2014-04-19 07:10:00,55.8,52.3,30.04,WNW,292,3.7,-999.0,88,-99.99,,,0.00,Acu-Link.com,2014-04-19 12:10:00,
2014-04-19 07:25:00,56.1,52.6,30.04,NW,315,8.9,-999.0,88,-99.99,,,0.00,Acu-Link.com,2014-04-19 12:25:00,
2014-04-19 07:40:00,56.3,52.5,30.05,NNW,337,2.7,-999.0,87,-99.99,,,0.00,Acu-Link.com,2014-04-19 12:40:00,
2014-04-19 07:55:00,56.5,52.7,30.07,ENE,67,2.2,-999.0,87,-99.99,,,0.00,Acu-Link.com,2014-04-19 12:55:00,
2014-04-19 08:10:00,56.8,53.0,30.07,NNE,22,3.7,-999.0,87,-99.99,,,0.00,Acu-Link.com,2014-04-19 13:10:00,
2014-04-19 08:25:00,57.4,53.2,30.07,NNE,22,3.2,-999.0,86,-99.99,,,0.00,Acu-Link.com,2014-04-19 13:25:00,
2014-04-19 08:40:00,57.9,53.7,30.07,NNW,337,3.2,-999.0,86,-99.99,,,0.00,Acu-Link.com,2014-04-19 13:40:00,
2014-04-19 08:56:00,58.1,53.9,30.07,NW,315,2.7,-999.0,86,-99.99,,,0.00,Acu-Link.com,2014-04-19 13:56:00,
2014-04-19 09:11:00,58.8,54.3,30.07,NNW,337,3.7,-999.0,85,-99.99,,,0.00,Acu-Link.com,2014-04-19 14:11:00,
2014-04-19 09:26:00,59.2,54.7,30.08,WNW,292,6.3,-999.0,85,-99.99,,,0.00,Acu-Link.com,2014-04-19 14:26:00,
2014-04-19 09:41:00,61.2,56.7,30.08,West,270,6.8,-999.0,85,-99.99,,,0.00,Acu-Link.com,2014-04-19 14:41:00,
2014-04-19 09:56:00,61.0,56.1,30.08,WNW,292,5.3,-999.0,84,-99.99,,,0.00,Acu-Link.com,2014-04-19 14:56:00,
2014-04-19 10:11:00,61.2,56.3,30.09,NW,315,4.2,-999.0,84,-99.99,,,0.00,Acu-Link.com,2014-04-19 15:11:00,
2014-04-19 10:26:00,61.7,56.8,30.08,West,270,5.3,-999.0,84,-99.99,,,0.00,Acu-Link.com,2014-04-19 15:26:00,
2014-04-19 10:41:00,60.3,55.8,30.08,NNW,337,4.2,-999.0,85,-99.99,,,0.00,Acu-Link.com,2014-04-19 15:41:00,
2014-04-19 10:56:00,63.7,58.4,30.07,North,0,5.8,-999.0,83,-99.99,,,0.00,Acu-Link.com,2014-04-19 15:56:00,
2014-04-19 11:12:00,64.4,58.8,30.07,WSW,247,2.7,-999.0,82,-99.99,,,0.00,Acu-Link.com,2014-04-19 16:12:00,
2014-04-19 11:27:00,66.6,59.9,30.05,SW,225,4.7,-999.0,79,-99.99,,,0.00,Acu-Link.com,2014-04-19 16:27:00,